Time,TemperatureF,DewpointF,PressureIn,WindDirection,WindDirectionDegrees,WindSpeedMPH,WindSpeedGustMPH,Humidity,HourlyPrecipIn,Conditions,Clouds,dailyrainin,SoftwareType,DateUTC
2013-03-29 00:00:00,28.4,28.4,30.26,West,265,0.0,0.0,100,0.00,,,0.00,Wunderground v.1.15,2013-03-29 04:00:00,
2013-03-29 00:01:00,28.4,28.4,30.26,West,265,0.0,0.0,100,0.00,,,0.00,Wunderground v.1.15,2013-03-29 04:01:00,
2013-03-29 00:07:00,28.2,28.2,30.26,West,265,0.0,0.0,100,0.00,,,0.00,Wunderground v.1.15,2013-03-29 04:07:00,
2013-03-29 00:08:00,28.2,28.2,30.26,West,265,0.0,0.0,100,0.00,,,0.00,Wunderground v.1.15,2013-03-29 04:08:00,
2013-03-29 00:13:00,28.1,28.1,30.26,West,265,0.0,0.0,100,0.00,,,0.00,Wunderground v.1.15,2013-03-29 04:13:00,
2013-03-29 00:14:00,28.1,28.1,30.26,West,265,0.0,0.0,100,0.00,,,0.00,Wunderground v.1.15,2013-03-29 04:14:00,
2013-03-29 00:20:00,27.9,27.9,30.26,West,265,0.0,0.0,100,0.00,,,0.00,Wunderground v.1.15,2013-03-29 04:20:00,
2013-03-29 00:26:00,27.8,27.8,30.26,West,265,0.0,0.0,100,0.00,,,0.00,Wunderground v.1.15,2013-03-29 04:26:00,
2013-03-29 00:32:00,27.8,27.8,30.26,West,265,0.0,0.0,100,0.00,,,0.00,Wunderground v.1.15,2013-03-29 04:32:00,
2013-03-29 00:38:00,27.6,27.6,30.26,West,265,0.0,0.0,100,0.00,,,0.00,Wunderground v.1.15,2013-03-29 04:38:00,
2013-03-29 00:44:00,27.6,27.6,30.26,West,265,0.0,0.0,100,0.00,,,0.00,Wunderground v.1.15,2013-03-29 04:44:00,
2013-03-29 00:49:00,27.5,27.5,30.26,West,265,0.0,0.0,100,0.00,,,0.00,Wunderground v.1.15,2013-03-29 04:49:00,
2013-03-29 00:54:00,27.3,27.3,30.26,West,265,0.0,0.0,100,0.00,,,0.00,Wunderground v.1.15,2013-03-29 04:54:00,
2013-03-29 01:00:00,27.3,27.3,30.27,West,265,0.0,0.0,100,0.00,,,0.00,Wunderground v.1.15,2013-03-29 05:00:00,
2013-03-29 01:06:00,27.3,27.3,30.27,West,265,0.0,0.0,100,0.00,,,0.00,Wunderground v.1.15,2013-03-29 05:06:00,
2013-03-29 01:12:00,27.2,27.2,30.27,West,265,0.0,0.0,100,0.00,,,0.00,Wunderground v.1.15,2013-03-29 05:12:00,
2013-03-29 01:18:00,27.2,27.2,30.27,West,265,0.0,0.0,100,0.00,,,0.00,Wunderground v.1.15,2013-03-29 05:18:00,
2013-03-29 01:24:00,27.0,27.0,30.27,West,265,0.0,0.0,100,0.00,,,0.00,Wunderground v.1.15,2013-03-29 05:24:00,
2013-03-29 01:30:00,27.0,27.0,30.27,West,265,0.0,0.0,100,0.00,,,0.00,Wunderground v.1.15,2013-03-29 05:30:00,
2013-03-29 01:36:00,26.9,26.9,30.27,West,265,0.0,0.0,100,0.00,,,0.00,Wunderground v.1.15,2013-03-29 05:36:00,
2013-03-29 01:41:00,26.9,26.9,30.27,West,265,0.0,0.0,100,0.00,,,0.00,Wunderground v.1.15,2013-03-29 05:41:00,
2013-03-29 01:47:00,26.9,26.9,30.27,West,265,0.0,0.0,100,0.00,,,0.00,Wunderground v.1.15,2013-03-29 05:47:00,
2013-03-29 01:52:00,26.9,26.9,30.27,West,265,0.0,0.0,100,0.00,,,0.00,Wunderground v.1.15,2013-03-29 05:52:00,
2013-03-29 01:58:00,26.7,26.7,30.27,West,265,0.0,0.0,100,0.00,,,0.00,Wunderground v.1.15,2013-03-29 05:58:00,
2013-03-29 02:04:00,26.7,26.7,30.27,West,265,0.0,0.0,100,0.00,,,0.00,Wunderground v.1.15,2013-03-29 06:04:00,
2013-03-29 02:10:00,26.6,26.6,30.27,West,265,0.0,0.0,100,0.00,,,0.00,Wunderground v.1.15,2013-03-29 06:10:00,
2013-03-29 02:16:00,26.6,26.6,30.27,West,265,0.0,0.0,100,0.00,,,0.00,Wunderground v.1.15,2013-03-29 06:16:00,
2013-03-29 02:22:00,26.6,26.6,30.27,West,265,0.0,0.0,100,0.00,,,0.00,Wunderground v.1.15,2013-03-29 06:22:00,
2013-03-29 02:27:00,26.6,26.6,30.27,West,265,0.0,0.0,100,0.00,,,0.00,Wunderground v.1.15,2013-03-29 06:27:00,
2013-03-29 02:32:00,26.6,26.6,30.27,West,265,0.0,0.0,100,0.00,,,0.00,Wunderground v.1.15,2013-03-29 06:32:00,
2013-03-29 02:38:00,26.6,26.6,30.27,West,265,0.0,0.0,100,0.00,,,0.00,Wunderground v.1.15,2013-03-29 06:38:00,
2013-03-29 02:44:00,26.4,26.4,30.27,West,265,0.0,0.0,100,0.00,,,0.00,Wunderground v.1.15,2013-03-29 06:44:00,
2013-03-29 02:49:00,26.4,26.4,30.27,West,265,0.0,0.0,100,0.00,,,0.00,Wunderground v.1.15,2013-03-29 06:49:00,
2013-03-29 02:55:00,26.3,26.3,30.27,West,265,0.0,0.0,100,0.00,,,0.00,Wunderground v.1.15,2013-03-29 06:55:00,
2013-03-29 03:00:00,26.1,26.1,30.27,West,265,0.0,0.0,100,0.00,,,0.00,Wunderground v.1.15,2013-03-29 07:00:00,
2013-03-29 03:05:00,26.1,26.1,30.27,West,265,0.0,0.0,100,0.00,,,0.00,Wunderground v.1.15,2013-03-29 07:05:00,
2013-03-29 03:12:00,25.8,25.8,30.27,West,265,0.0,0.0,100,0.00,,,0.00,Wunderground v.1.15,2013-03-29 07:12:00,
2013-03-29 03:18:00,25.7,25.7,30.27,West,265,0.0,0.0,100,0.00,,,0.00,Wunderground v.1.15,2013-03-29 07:18:00,
2013-03-29 03:23:00,25.6,25.6,30.27,West,265,0.0,0.0,100,0.00,,,0.00,Wunderground v.1.15,2013-03-29 07:23:00,
2013-03-29 03:28:00,25.6,25.6,30.27,West,265,0.0,0.0,100,0.00,,,0.00,Wunderground v.1.15,2013-03-29 07:28:00,
2013-03-29 03:33:00,25.4,25.4,30.27,West,265,0.0,0.0,100,0.00,,,0.00,Wunderground v.1.15,2013-03-29 07:33:00,
2013-03-29 03:39:00,25.1,25.1,30.27,West,265,0.0,0.0,100,0.00,,,0.00,Wunderground v.1.15,2013-03-29 07:39:00,
2013-03-29 03:45:00,25.1,25.1,30.27,West,265,0.0,0.0,100,0.00,,,0.00,Wunderground v.1.15,2013-03-29 07:45:00,
2013-03-29 03:51:00,25.0,25.0,30.27,West,265,0.0,0.0,100,0.00,,,0.00,Wunderground v.1.15,2013-03-29 07:51:00,
2013-03-29 03:56:00,24.8,24.8,30.27,West,265,0.0,0.0,100,0.00,,,0.00,Wunderground v.1.15,2013-03-29 07:56:00,
2013-03-29 04:02:00,24.7,24.7,30.27,West,265,0.0,0.0,100,0.00,,,0.00,Wunderground v.1.15,2013-03-29 08:02:00,
2013-03-29 04:07:00,24.7,24.7,30.27,West,265,0.0,0.0,100,0.00,,,0.00,Wunderground v.1.15,2013-03-29 08:07:00,
2013-03-29 04:13:00,24.7,24.7,30.27,West,265,0.0,0.0,100,0.00,,,0.00,Wunderground v.1.15,2013-03-29 08:13:00,
2013-03-29 04:19:00,24.5,24.5,30.26,West,265,0.0,0.0,100,0.00,,,0.00,Wunderground v.1.15,2013-03-29 08:19:00,
2013-03-29 04:25:00,24.5,24.5,30.26,West,265,0.0,0.0,100,0.00,,,0.00,Wunderground v.1.15,2013-03-29 08:25:00,
2013-03-29 04:32:00,24.4,24.4,30.26,West,265,0.0,0.0,100,0.00,,,0.00,Wunderground v.1.15,2013-03-29 08:32:00,
2013-03-29 04:38:00,24.5,24.5,30.26,West,265,0.0,0.0,100,0.00,,,0.00,Wunderground v.1.15,2013-03-29 08:38:00,
2013-03-29 04:43:00,24.5,24.5,30.26,West,265,0.0,0.0,100,0.00,,,0.00,Wunderground v.1.15,2013-03-29 08:43:00,
2013-03-29 04:49:00,24.4,24.4,30.26,West,265,0.0,0.0,100,0.00,,,0.00,Wunderground v.1.15,2013-03-29 08:49:00,
2013-03-29 04:54:00,24.4,24.4,30.26,West,265,0.0,0.0,100,0.00,,,0.00,Wunderground v.1.15,2013-03-29 08:54:00,
2013-03-29 04:59:00,24.4,24.4,30.26,West,265,0.0,0.0,100,0.00,,,0.00,Wunderground v.1.15,2013-03-29 08:59:00,
2013-03-29 05:05:00,24.5,24.5,30.26,West,265,0.0,0.0,100,0.00,,,0.00,Wunderground v.1.15,2013-03-29 09:05:00,
2013-03-29 05:11:00,24.5,24.5,30.26,West,265,0.0,0.0,100,0.00,,,0.00,Wunderground v.1.15,2013-03-29 09:11:00,
2013-03-29 05:17:00,24.4,24.4,30.26,West,265,0.0,0.0,100,0.00,,,0.00,Wunderground v.1.15,2013-03-29 09:17:00,
2013-03-29 05:22:00,24.4,24.4,30.26,West,265,0.0,0.0,100,0.00,,,0.00,Wunderground v.1.15,2013-03-29 09:22:00,
2013-03-29 05:28:00,24.2,24.2,30.26,West,265,0.0,0.0,100,0.00,,,0.00,Wunderground v.1.15,2013-03-29 09:28:00,
2013-03-29 05:33:00,24.1,24.1,30.26,West,265,0.0,0.0,100,0.00,,,0.00,Wunderground v.1.15,2013-03-29 09:33:00,
2013-03-29 05:39:00,23.9,23.9,30.26,West,265,0.0,0.0,100,0.00,,,0.00,Wunderground v.1.15,2013-03-29 09:39:00,
2013-03-29 05:44:00,23.9,23.9,30.26,West,265,0.0,0.0,100,0.00,,,0.00,Wunderground v.1.15,2013-03-29 09:44:00,
2013-03-29 05:50:00,23.8,23.8,30.26,West,265,0.0,0.0,100,0.00,,,0.00,Wunderground v.1.15,2013-03-29 09:50:00,
2013-03-29 05:55:00,23.8,23.8,30.26,West,265,0.0,0.0,100,0.00,,,0.00,Wunderground v.1.15,2013-03-29 09:55:00,
2013-03-29 06:02:00,23.6,23.6,30.26,West,265,0.0,0.0,100,0.00,,,0.00,Wunderground v.1.15,2013-03-29 10:02:00,
2013-03-29 06:08:00,23.6,23.6,30.26,West,265,0.0,0.0,100,0.00,,,0.00,Wunderground v.1.15,2013-03-29 10:08:00,
2013-03-29 06:14:00,23.6,23.6,30.26,West,265,0.0,0.0,100,0.00,,,0.00,Wunderground v.1.15,2013-03-29 10:14:00,
2013-03-29 06:19:00,23.3,23.3,30.25,West,265,0.0,0.0,100,0.00,,,0.00,Wunderground v.1.15,2013-03-29 10:19:00,
2013-03-29 06:24:00,23.2,23.2,30.25,West,265,0.0,0.0,100,0.00,,,0.00,Wunderground v.1.15,2013-03-29 10:24:00,
2013-03-29 06:30:00,23.2,23.2,30.26,West,265,0.0,0.0,100,0.00,,,0.00,Wunderground v.1.15,2013-03-29 10:30:00,
2013-03-29 06:35:00,23.2,23.2,30.26,West,265,0.0,0.0,100,0.00,,,0.00,Wunderground v.1.15,2013-03-29 10:35:00,
2013-03-29 06:41:00,23.2,23.2,30.26,West,265,0.0,0.0,100,0.00,,,0.00,Wunderground v.1.15,2013-03-29 10:41:00,
2013-03-29 06:47:00,23.2,23.2,30.26,West,265,0.0,0.0,100,0.00,,,0.00,Wunderground v.1.15,2013-03-29 10:47:00,
2013-03-29 06:53:00,23.2,23.2,30.26,West,265,0.0,0.0,100,0.00,,,0.00,Wunderground v.1.15,2013-03-29 10:53:00,
2013-03-29 06:59:00,23.3,23.3,30.26,West,265,0.0,0.0,100,0.00,,,0.00,Wunderground v.1.15,2013-03-29 10:59:00,
2013-03-29 07:04:00,23.3,23.3,30.26,West,265,0.0,0.0,100,0.00,,,0.00,Wunderground v.1.15,2013-03-29 11:04:00,
2013-03-29 07:10:00,23.5,23.5,30.26,West,265,0.0,0.0,100,0.00,,,0.00,Wunderground v.1.15,2013-03-29 11:10:00,
2013-03-29 07:15:00,23.5,23.5,30.26,West,265,0.0,0.0,100,0.00,,,0.00,Wunderground v.1.15,2013-03-29 11:15:00,
2013-03-29 07:21:00,23.5,23.5,30.26,West,265,0.0,0.0,100,0.00,,,0.00,Wunderground v.1.15,2013-03-29 11:21:00,
2013-03-29 07:26:00,23.3,23.3,30.26,West,265,0.0,0.0,100,0.00,,,0.00,Wunderground v.1.15,2013-03-29 11:26:00,
2013-03-29 07:31:00,23.3,23.3,30.26,West,265,0.0,0.0,100,0.00,,,0.00,Wunderground v.1.15,2013-03-29 11:31:00,
2013-03-29 07:37:00,23.2,23.2,30.26,West,265,0.0,0.0,100,0.00,,,0.00,Wunderground v.1.15,2013-03-29 11:37:00,
2013-03-29 07:43:00,23.0,23.0,30.26,West,265,0.0,0.0,100,0.00,,,0.00,Wunderground v.1.15,2013-03-29 11:43:00,
2013-03-29 07:49:00,22.9,22.9,30.26,West,265,0.0,0.0,100,0.00,,,0.00,Wunderground v.1.15,2013-03-29 11:49:00,
2013-03-29 07:54:00,22.9,22.9,30.26,West,265,0.0,0.0,100,0.00,,,0.00,Wunderground v.1.15,2013-03-29 11:54:00,
2013-03-29 07:59:00,22.9,22.9,30.26,West,265,0.0,0.0,100,0.00,,,0.00,Wunderground v.1.15,2013-03-29 11:59:00,
2013-03-29 08:06:00,22.9,22.9,30.26,West,265,0.0,0.0,100,0.00,,,0.00,Wunderground v.1.15,2013-03-29 12:06:00,
2013-03-29 08:11:00,23.0,23.0,30.26,West,265,0.0,0.0,100,0.00,,,0.00,Wunderground v.1.15,2013-03-29 12:11:00,
2013-03-29 08:17:00,23.2,23.2,30.27,West,265,0.0,0.0,100,0.00,,,0.00,Wunderground v.1.15,2013-03-29 12:17:00,
2013-03-29 08:24:00,23.2,23.2,30.27,West,265,0.0,0.0,100,0.00,,,0.00,Wunderground v.1.15,2013-03-29 12:24:00,
2013-03-29 08:29:00,23.5,23.5,30.27,West,265,0.0,0.0,100,0.00,,,0.00,Wunderground v.1.15,2013-03-29 12:29:00,
2013-03-29 08:34:00,23.9,23.9,30.27,West,265,0.0,0.0,100,0.00,,,0.00,Wunderground v.1.15,2013-03-29 12:34:00,
2013-03-29 08:40:00,24.4,24.4,30.27,West,265,0.0,0.0,100,0.00,,,0.00,Wunderground v.1.15,2013-03-29 12:40:00,
2013-03-29 08:46:00,25.0,25.0,30.27,West,265,0.0,0.0,100,0.00,,,0.00,Wunderground v.1.15,2013-03-29 12:46:00,
2013-03-29 08:51:00,25.6,25.6,30.27,West,265,0.0,0.0,100,0.00,,,0.00,Wunderground v.1.15,2013-03-29 12:51:00,
2013-03-29 08:57:00,26.3,26.3,30.27,West,265,0.0,0.0,100,0.00,,,0.00,Wunderground v.1.15,2013-03-29 12:57:00,
2013-03-29 09:02:00,26.9,26.9,30.27,West,265,0.0,0.0,100,0.00,,,0.00,Wunderground v.1.15,2013-03-29 13:02:00,
2013-03-29 09:09:00,27.6,27.6,30.27,West,265,0.0,0.0,100,0.00,,,0.00,Wunderground v.1.15,2013-03-29 13:09:00,
2013-03-29 09:14:00,28.2,28.2,30.27,West,265,0.0,0.0,100,0.00,,,0.00,Wunderground v.1.15,2013-03-29 13:14:00,
2013-03-29 09:19:00,28.8,28.8,30.27,West,265,0.0,0.0,100,0.00,,,0.00,Wunderground v.1.15,2013-03-29 13:19:00,
2013-03-29 09:24:00,29.4,29.4,30.27,West,265,0.0,0.0,100,0.00,,,0.00,Wunderground v.1.15,2013-03-29 13:24:00,
2013-03-29 09:30:00,30.1,30.1,30.27,West,265,0.0,0.0,100,0.00,,,0.00,Wunderground v.1.15,2013-03-29 13:30:00,
2013-03-29 09:36:00,30.9,30.9,30.27,West,265,0.0,0.0,100,0.00,,,0.00,Wunderground v.1.15,2013-03-29 13:36:00,
2013-03-29 09:42:00,31.8,31.8,30.27,West,265,0.0,0.0,100,0.00,,,0.00,Wunderground v.1.15,2013-03-29 13:42:00,
2013-03-29 09:47:00,32.5,32.5,30.27,West,265,0.0,0.0,100,0.00,,,0.00,Wunderground v.1.15,2013-03-29 13:47:00,
2013-03-29 09:54:00,33.2,33.2,30.27,West,265,0.0,0.0,100,0.00,,,0.00,Wunderground v.1.15,2013-03-29 13:54:00,
2013-03-29 09:59:00,34.1,34.1,30.27,West,265,0.0,0.0,100,0.00,,,0.00,Wunderground v.1.15,2013-03-29 13:59:00,
2013-03-29 10:04:00,35.2,35.2,30.27,WSW,241,0.0,0.0,100,0.00,,,0.00,Wunderground v.1.15,2013-03-29 14:04:00,
2013-03-29 10:09:00,36.0,32.2,30.27,West,261,0.0,0.0,86,0.00,,,0.00,Wunderground v.1.15,2013-03-29 14:09:00,
2013-03-29 10:14:00,36.8,32.1,30.27,WSW,258,0.0,0.0,83,0.00,,,0.00,Wunderground v.1.15,2013-03-29 14:14:00,
2013-03-29 10:20:00,37.9,30.0,30.27,WSW,257,0.0,0.0,73,0.00,,,0.00,Wunderground v.1.15,2013-03-29 14:20:00,
2013-03-29 10:25:00,38.8,28.4,30.27,West,263,0.0,3.0,66,0.00,,,0.00,Wunderground v.1.15,2013-03-29 14:25:00,
2013-03-29 10:31:00,39.5,26.3,30.27,West,263,1.0,1.0,59,0.00,,,0.00,Wunderground v.1.15,2013-03-29 14:31:00,
2013-03-29 10:37:00,40.3,24.5,30.27,West,263,1.0,2.0,53,0.00,,,0.00,Wunderground v.1.15,2013-03-29 14:37:00,
2013-03-29 10:44:00,40.8,23.1,30.27,West,263,2.0,4.0,49,0.00,,,0.00,Wunderground v.1.15,2013-03-29 14:44:00,
2013-03-29 10:49:00,41.3,22.6,30.27,SW,222,2.0,4.0,47,0.00,,,0.00,Wunderground v.1.15,2013-03-29 14:49:00,
2013-03-29 10:54:00,41.9,22.6,30.27,SW,223,2.0,3.0,46,0.00,,,0.00,Wunderground v.1.15,2013-03-29 14:54:00,
2013-03-29 10:59:00,42.1,24.3,30.27,South,172,2.0,3.0,49,0.00,,,0.00,Wunderground v.1.15,2013-03-29 14:59:00,
2013-03-29 11:04:00,42.3,20.8,30.27,SW,233,3.0,7.0,42,0.00,,,0.00,Wunderground v.1.15,2013-03-29 15:04:00,
2013-03-29 11:09:00,42.6,19.3,30.27,WSW,241,4.0,7.0,39,0.00,,,0.00,Wunderground v.1.15,2013-03-29 15:09:00,
2013-03-29 11:15:00,42.6,20.5,30.27,West,272,4.0,7.0,41,0.00,,,0.00,Wunderground v.1.15,2013-03-29 15:15:00,
2013-03-29 11:20:00,42.9,20.8,30.27,SSW,203,4.0,7.0,41,0.00,,,0.00,Wunderground v.1.15,2013-03-29 15:20:00,
2013-03-29 11:26:00,42.6,20.5,30.27,SW,226,4.0,7.0,41,0.00,,,0.00,Wunderground v.1.15,2013-03-29 15:26:00,
2013-03-29 11:31:00,42.5,23.2,30.28,SSW,213,4.0,7.0,46,0.00,,,0.00,Wunderground v.1.15,2013-03-29 15:31:00,
2013-03-29 11:37:00,42.6,23.8,30.28,SSW,199,4.0,7.0,47,0.00,,,0.00,Wunderground v.1.15,2013-03-29 15:37:00,
2013-03-29 11:44:00,42.6,24.3,30.28,WSW,251,3.0,10.0,48,0.00,,,0.00,Wunderground v.1.15,2013-03-29 15:44:00,
2013-03-29 11:49:00,42.8,24.9,30.28,SW,234,3.0,10.0,49,0.00,,,0.00,Wunderground v.1.15,2013-03-29 15:49:00,
2013-03-29 11:54:00,42.8,23.4,30.28,South,175,3.0,7.0,46,0.00,,,0.00,Wunderground v.1.15,2013-03-29 15:54:00,
2013-03-29 11:59:00,42.5,25.1,30.28,WSW,254,3.0,7.0,50,0.00,,,0.00,Wunderground v.1.15,2013-03-29 15:59:00,
2013-03-29 12:06:00,43.3,23.9,30.28,SW,233,3.0,10.0,46,0.00,,,0.00,Wunderground v.1.15,2013-03-29 16:06:00,
2013-03-29 12:11:00,43.3,21.7,30.28,SSE,167,3.0,10.0,42,0.00,,,0.00,Wunderground v.1.15,2013-03-29 16:11:00,
2013-03-29 12:16:00,43.6,22.5,30.28,South,181,3.0,10.0,43,0.00,,,0.00,Wunderground v.1.15,2013-03-29 16:16:00,
2013-03-29 12:22:00,43.6,23.1,30.28,SSW,205,4.0,10.0,44,0.00,,,0.00,Wunderground v.1.15,2013-03-29 16:22:00,
2013-03-29 12:29:00,43.8,23.3,30.28,SSE,161,3.0,10.0,44,0.00,,,0.00,Wunderground v.1.15,2013-03-29 16:29:00,
2013-03-29 12:34:00,43.3,22.3,30.27,SW,215,4.0,10.0,43,0.00,,,0.00,Wunderground v.1.15,2013-03-29 16:34:00,
2013-03-29 12:40:00,43.3,21.7,30.27,SSW,199,5.0,10.0,42,0.00,,,0.00,Wunderground v.1.15,2013-03-29 16:40:00,
2013-03-29 12:45:00,43.3,22.8,30.27,SSE,161,4.0,10.0,44,0.00,,,0.00,Wunderground v.1.15,2013-03-29 16:45:00,
2013-03-29 12:50:00,43.3,22.8,30.27,SSW,192,4.0,4.0,44,0.00,,,0.00,Wunderground v.1.15,2013-03-29 16:50:00,
2013-03-29 12:56:00,43.6,21.4,30.27,SW,217,4.0,10.0,41,0.00,,,0.00,Wunderground v.1.15,2013-03-29 16:56:00,
2013-03-29 13:01:00,43.8,21.6,30.26,SW,215,3.0,10.0,41,0.00,,,0.00,Wunderground v.1.15,2013-03-29 17:01:00,
2013-03-29 13:07:00,44.1,20.7,30.26,South,189,3.0,10.0,39,0.00,,,0.00,Wunderground v.1.15,2013-03-29 17:07:00,
2013-03-29 13:14:00,44.1,20.1,30.26,SSW,196,3.0,10.0,38,0.00,,,0.00,Wunderground v.1.15,2013-03-29 17:14:00,
2013-03-29 13:19:00,44.1,19.5,30.26,SW,217,3.0,10.0,37,0.00,,,0.00,Wunderground v.1.15,2013-03-29 17:19:00,
2013-03-29 13:24:00,44.1,20.1,30.26,SSW,213,5.0,10.0,38,0.00,,,0.00,Wunderground v.1.15,2013-03-29 17:24:00,
2013-03-29 13:30:00,44.5,19.8,30.26,SW,226,5.0,10.0,37,0.00,,,0.00,Wunderground v.1.15,2013-03-29 17:30:00,
2013-03-29 13:35:00,44.9,18.2,30.26,West,260,4.0,10.0,34,0.00,,,0.00,Wunderground v.1.15,2013-03-29 17:35:00,
2013-03-29 13:41:00,45.1,19.7,30.26,South,169,3.0,10.0,36,0.00,,,0.00,Wunderground v.1.15,2013-03-29 17:41:00,
2013-03-29 13:47:00,44.5,17.8,30.25,WSW,241,4.0,10.0,34,0.00,,,0.00,Wunderground v.1.15,2013-03-29 17:47:00,
2013-03-29 13:54:00,44.9,19.5,30.25,SSE,164,5.0,10.0,36,0.00,,,0.00,Wunderground v.1.15,2013-03-29 17:54:00,
2013-03-29 13:59:00,44.5,18.5,30.25,SSW,208,4.0,11.0,35,0.00,,,0.00,Wunderground v.1.15,2013-03-29 17:59:00,
2013-03-29 14:04:00,44.5,18.5,30.25,SSW,210,5.0,10.0,35,0.00,,,0.00,Wunderground v.1.15,2013-03-29 18:04:00,
2013-03-29 14:09:00,44.3,17.7,30.25,SSW,199,6.0,11.0,34,0.00,,,0.00,Wunderground v.1.15,2013-03-29 18:09:00,
2013-03-29 14:15:00,44.6,19.3,30.25,SSW,203,5.0,11.0,36,0.00,,,0.00,Wunderground v.1.15,2013-03-29 18:15:00,
2013-03-29 14:21:00,45.2,21.7,30.25,SSW,192,4.0,11.0,39,0.00,,,0.00,Wunderground v.1.15,2013-03-29 18:21:00,
2013-03-29 14:26:00,45.1,18.4,30.25,WSW,243,4.0,11.0,34,0.00,,,0.00,Wunderground v.1.15,2013-03-29 18:26:00,
2013-03-29 14:32:00,44.9,18.9,30.25,South,178,5.0,11.0,35,0.00,,,0.00,Wunderground v.1.15,2013-03-29 18:32:00,
2013-03-29 14:38:00,44.2,17.6,30.25,SSW,212,5.0,11.0,34,0.00,,,0.00,Wunderground v.1.15,2013-03-29 18:38:00,
2013-03-29 14:43:00,44.2,18.2,30.25,SSW,209,5.0,11.0,35,0.00,,,0.00,Wunderground v.1.15,2013-03-29 18:43:00,
2013-03-29 14:49:00,44.6,17.9,30.24,SSW,205,6.0,11.0,34,0.00,,,0.00,Wunderground v.1.15,2013-03-29 18:49:00,
2013-03-29 14:54:00,45.1,18.4,30.24,SSW,213,5.0,11.0,34,0.00,,,0.00,Wunderground v.1.15,2013-03-29 18:54:00,
2013-03-29 15:00:00,44.6,20.5,30.24,SW,215,5.0,14.0,38,0.00,,,0.00,Wunderground v.1.15,2013-03-29 19:00:00,
2013-03-29 15:05:00,44.6,19.9,30.24,SSW,213,6.0,11.0,37,0.00,,,0.00,Wunderground v.1.15,2013-03-29 19:05:00,
2013-03-29 15:11:00,44.5,17.8,30.24,SSW,209,5.0,14.0,34,0.00,,,0.00,Wunderground v.1.15,2013-03-29 19:11:00,
2013-03-29 15:16:00,44.3,19.6,30.24,SSW,199,5.0,14.0,37,0.00,,,0.00,Wunderground v.1.15,2013-03-29 19:16:00,
2013-03-29 15:22:00,45.2,20.4,30.24,South,188,5.0,14.0,37,0.00,,,0.00,Wunderground v.1.15,2013-03-29 19:22:00,
2013-03-29 15:27:00,45.1,21.0,30.24,SW,215,5.0,14.0,38,0.00,,,0.00,Wunderground v.1.15,2013-03-29 19:27:00,
2013-03-29 15:33:00,44.3,18.3,30.24,South,169,6.0,14.0,35,0.00,,,0.00,Wunderground v.1.15,2013-03-29 19:33:00,
2013-03-29 15:38:00,44.6,17.9,30.24,SSE,157,5.0,14.0,34,0.00,,,0.00,Wunderground v.1.15,2013-03-29 19:38:00,
2013-03-29 15:44:00,44.8,20.1,30.24,SSE,151,5.0,14.0,37,0.00,,,0.00,Wunderground v.1.15,2013-03-29 19:44:00,
2013-03-29 15:49:00,45.2,19.1,30.23,South,176,5.0,14.0,35,0.00,,,0.00,Wunderground v.1.15,2013-03-29 19:49:00,
2013-03-29 15:55:00,45.7,22.7,30.23,SSW,193,4.0,14.0,40,0.00,,,0.00,Wunderground v.1.15,2013-03-29 19:55:00,
2013-03-29 16:00:00,45.4,18.6,30.23,SW,215,4.0,14.0,34,0.00,,,0.00,Wunderground v.1.15,2013-03-29 20:00:00,
2013-03-29 16:06:00,45.1,22.8,30.23,WSW,246,5.0,14.0,41,0.00,,,0.00,Wunderground v.1.15,2013-03-29 20:06:00,
2013-03-29 16:12:00,44.9,22.0,30.23,WSW,256,6.0,12.0,40,0.00,,,0.00,Wunderground v.1.15,2013-03-29 20:12:00,
2013-03-29 16:18:00,44.9,20.8,30.23,SW,222,5.0,12.0,38,0.00,,,0.00,Wunderground v.1.15,2013-03-29 20:18:00,
2013-03-29 16:24:00,44.6,20.5,30.23,NW,319,6.0,12.0,38,0.00,,,0.00,Wunderground v.1.15,2013-03-29 20:24:00,
2013-03-29 16:29:00,45.1,18.4,30.23,SSW,210,6.0,12.0,34,0.00,,,0.00,Wunderground v.1.15,2013-03-29 20:29:00,
2013-03-29 16:35:00,45.1,18.4,30.23,WSW,246,5.0,12.0,34,0.00,,,0.00,Wunderground v.1.15,2013-03-29 20:35:00,
2013-03-29 16:40:00,45.2,17.0,30.23,SSW,208,4.0,12.0,32,0.00,,,0.00,Wunderground v.1.15,2013-03-29 20:40:00,
2013-03-29 16:46:00,45.4,17.2,30.22,SSW,200,4.0,12.0,32,0.00,,,0.00,Wunderground v.1.15,2013-03-29 20:46:00,
2013-03-29 16:52:00,45.4,15.7,30.22,SW,223,4.0,12.0,30,0.00,,,0.00,Wunderground v.1.15,2013-03-29 20:52:00,
2013-03-29 16:58:00,44.9,18.9,30.22,SW,226,5.0,12.0,35,0.00,,,0.00,Wunderground v.1.15,2013-03-29 20:58:00,
2013-03-29 17:04:00,45.7,17.5,30.22,SW,233,4.0,12.0,32,0.00,,,0.00,Wunderground v.1.15,2013-03-29 21:04:00,
2013-03-29 17:09:00,45.4,16.5,30.22,West,278,3.0,14.0,31,0.00,,,0.00,Wunderground v.1.15,2013-03-29 21:09:00,
2013-03-29 17:15:00,45.2,15.6,30.22,West,264,5.0,14.0,30,0.00,,,0.00,Wunderground v.1.15,2013-03-29 21:15:00,
2013-03-29 17:21:00,44.9,16.0,30.22,West,271,6.0,14.0,31,0.00,,,0.00,Wunderground v.1.15,2013-03-29 21:21:00,
2013-03-29 17:27:00,44.6,17.2,30.22,West,264,6.0,14.0,33,0.00,,,0.00,Wunderground v.1.15,2013-03-29 21:27:00,
2013-03-29 17:32:00,45.2,17.0,30.22,West,275,4.0,5.0,32,0.00,,,0.00,Wunderground v.1.15,2013-03-29 21:32:00,
2013-03-29 17:38:00,44.9,17.5,30.22,WSW,256,4.0,14.0,33,0.00,,,0.00,Wunderground v.1.15,2013-03-29 21:38:00,
2013-03-29 17:43:00,45.1,16.2,30.22,West,281,5.0,14.0,31,0.00,,,0.00,Wunderground v.1.15,2013-03-29 21:43:00,
2013-03-29 17:48:00,45.1,16.2,30.21,West,275,4.0,14.0,31,0.00,,,0.00,Wunderground v.1.15,2013-03-29 21:48:00,
2013-03-29 17:54:00,45.4,16.5,30.21,West,263,4.0,14.0,31,0.00,,,0.00,Wunderground v.1.15,2013-03-29 21:54:00,
2013-03-29 18:00:00,45.1,16.2,30.21,West,260,4.0,14.0,31,0.00,,,0.00,Wunderground v.1.15,2013-03-29 22:00:00,
2013-03-29 18:05:00,45.4,16.5,30.21,West,261,3.0,14.0,31,0.00,,,0.00,Wunderground v.1.15,2013-03-29 22:05:00,
2013-03-29 18:11:00,44.8,14.4,30.21,NW,305,4.0,12.0,29,0.00,,,0.00,Wunderground v.1.15,2013-03-29 22:11:00,
2013-03-29 18:17:00,44.8,16.0,30.21,SSW,205,5.0,12.0,31,0.00,,,0.00,Wunderground v.1.15,2013-03-29 22:17:00,
2013-03-29 18:23:00,44.9,14.5,30.21,West,275,4.0,12.0,29,0.00,,,0.00,Wunderground v.1.15,2013-03-29 22:23:00,
2013-03-29 18:28:00,44.8,16.0,30.21,WNW,302,4.0,12.0,31,0.00,,,0.00,Wunderground v.1.15,2013-03-29 22:28:00,
2013-03-29 18:33:00,44.8,13.6,30.21,West,263,4.0,12.0,28,0.00,,,0.00,Wunderground v.1.15,2013-03-29 22:33:00,
2013-03-29 18:39:00,44.9,14.5,30.21,SW,232,3.0,12.0,29,0.00,,,0.00,Wunderground v.1.15,2013-03-29 22:39:00,
2013-03-29 18:45:00,44.8,13.6,30.21,SSW,199,3.0,12.0,28,0.00,,,0.00,Wunderground v.1.15,2013-03-29 22:45:00,
2013-03-29 18:51:00,44.5,15.7,30.21,SW,215,3.0,3.0,31,0.00,,,0.00,Wunderground v.1.15,2013-03-29 22:51:00,
2013-03-29 18:57:00,44.5,15.7,30.21,SW,215,2.0,12.0,31,0.00,,,0.00,Wunderground v.1.15,2013-03-29 22:57:00,
2013-03-29 19:03:00,44.8,13.6,30.21,West,270,2.0,12.0,28,0.00,,,0.00,Wunderground v.1.15,2013-03-29 23:03:00,
2013-03-29 19:08:00,44.3,15.5,30.21,West,270,2.0,12.0,31,0.00,,,0.00,Wunderground v.1.15,2013-03-29 23:08:00,
2013-03-29 19:14:00,44.3,15.5,30.21,West,270,2.0,7.0,31,0.00,,,0.00,Wunderground v.1.15,2013-03-29 23:14:00,
2013-03-29 19:19:00,44.2,14.7,30.21,West,271,2.0,7.0,30,0.00,,,0.00,Wunderground v.1.15,2013-03-29 23:19:00,
2013-03-29 19:24:00,43.9,15.2,30.21,West,271,1.0,7.0,31,0.00,,,0.00,Wunderground v.1.15,2013-03-29 23:24:00,
2013-03-29 19:30:00,43.8,15.1,30.21,West,271,1.0,7.0,31,0.00,,,0.00,Wunderground v.1.15,2013-03-29 23:30:00,
2013-03-29 19:37:00,43.6,16.3,30.21,West,271,1.0,7.0,33,0.00,,,0.00,Wunderground v.1.15,2013-03-29 23:37:00,
2013-03-29 19:42:00,43.1,15.2,30.21,West,270,1.0,7.0,32,0.00,,,0.00,Wunderground v.1.15,2013-03-29 23:42:00,
2013-03-29 19:47:00,42.6,15.5,30.21,West,264,0.0,7.0,33,0.00,,,0.00,Wunderground v.1.15,2013-03-29 23:47:00,
2013-03-29 19:53:00,42.1,15.7,30.21,WSW,257,0.0,7.0,34,0.00,,,0.00,Wunderground v.1.15,2013-03-29 23:53:00,
2013-03-29 19:59:00,41.9,16.2,30.21,WSW,256,0.0,7.0,35,0.00,,,0.00,Wunderground v.1.15,2013-03-29 23:59:00,
2013-03-29 20:04:00,41.5,16.5,30.21,West,272,0.0,7.0,36,0.00,,,0.00,Wunderground v.1.15,2013-03-30 00:04:00,
2013-03-29 20:10:00,41.1,16.8,30.21,West,272,0.0,2.0,37,0.00,,,0.00,Wunderground v.1.15,2013-03-30 00:10:00,
2013-03-29 20:15:00,40.9,17.2,30.20,West,272,0.0,2.0,38,0.00,,,0.00,Wunderground v.1.15,2013-03-30 00:15:00,
2013-03-29 20:22:00,40.5,17.5,30.20,West,271,0.0,2.0,39,0.00,,,0.00,Wunderground v.1.15,2013-03-30 00:22:00,
2013-03-29 20:28:00,39.6,17.8,30.20,West,270,0.0,2.0,41,0.00,,,0.00,Wunderground v.1.15,2013-03-30 00:28:00,
2013-03-29 20:34:00,39.1,17.9,30.20,West,271,0.0,2.0,42,0.00,,,0.00,Wunderground v.1.15,2013-03-30 00:34:00,
2013-03-29 20:39:00,38.6,18.5,30.20,West,271,0.0,2.0,44,0.00,,,0.00,Wunderground v.1.15,2013-03-30 00:39:00,
2013-03-29 20:45:00,38.0,19.5,30.21,West,271,0.0,2.0,47,0.00,,,0.00,Wunderground v.1.15,2013-03-30 00:45:00,
2013-03-29 20:51:00,37.6,20.6,30.21,West,272,0.0,2.0,50,0.00,,,0.00,Wunderground v.1.15,2013-03-30 00:51:00,
2013-03-29 20:56:00,37.2,20.7,30.21,West,272,0.0,2.0,51,0.00,,,0.00,Wunderground v.1.15,2013-03-30 00:56:00,
2013-03-29 21:02:00,36.9,21.3,30.21,West,272,0.0,2.0,53,0.00,,,0.00,Wunderground v.1.15,2013-03-30 01:02:00,
2013-03-29 21:07:00,36.8,21.3,30.21,West,272,0.0,2.0,53,0.00,,,0.00,Wunderground v.1.15,2013-03-30 01:07:00,
2013-03-29 21:13:00,36.5,21.8,30.21,West,272,0.0,0.0,55,0.00,,,0.00,Wunderground v.1.15,2013-03-30 01:13:00,
2013-03-29 21:19:00,36.0,21.4,30.21,West,272,0.0,0.0,55,0.00,,,0.00,Wunderground v.1.15,2013-03-30 01:19:00,
2013-03-29 21:25:00,35.8,22.0,30.21,West,272,0.0,0.0,57,0.00,,,0.00,Wunderground v.1.15,2013-03-30 01:25:00,
2013-03-29 21:32:00,35.5,22.6,30.21,West,272,0.0,0.0,59,0.00,,,0.00,Wunderground v.1.15,2013-03-30 01:32:00,
2013-03-29 21:37:00,35.3,22.8,30.21,West,272,0.0,0.0,60,0.00,,,0.00,Wunderground v.1.15,2013-03-30 01:37:00,
2013-03-29 21:44:00,35.0,22.5,30.21,West,272,0.0,0.0,60,0.00,,,0.00,Wunderground v.1.15,2013-03-30 01:44:00,
2013-03-29 21:49:00,34.6,22.5,30.21,West,272,0.0,0.0,61,0.00,,,0.00,Wunderground v.1.15,2013-03-30 01:49:00,
2013-03-29 21:54:00,34.3,23.0,30.21,West,272,0.0,0.0,63,0.00,,,0.00,Wunderground v.1.15,2013-03-30 01:54:00,
2013-03-29 22:00:00,34.0,23.1,30.21,West,272,0.0,0.0,64,0.00,,,0.00,Wunderground v.1.15,2013-03-30 02:00:00,
2013-03-29 22:05:00,33.7,23.2,30.21,West,272,0.0,0.0,65,0.00,,,0.00,Wunderground v.1.15,2013-03-30 02:05:00,
2013-03-29 22:11:00,33.2,23.8,30.21,West,272,0.0,0.0,68,0.00,,,0.00,Wunderground v.1.15,2013-03-30 02:11:00,
2013-03-29 22:17:00,33.1,23.7,30.21,West,272,0.0,0.0,68,0.00,,,0.00,Wunderground v.1.15,2013-03-30 02:17:00,
2013-03-29 22:22:00,32.9,23.8,30.21,West,272,0.0,0.0,69,0.00,,,0.00,Wunderground v.1.15,2013-03-30 02:22:00,
2013-03-29 22:28:00,32.7,25.3,30.21,West,272,0.0,0.0,74,0.00,,,0.00,Wunderground v.1.15,2013-03-30 02:28:00,
2013-03-29 22:34:00,32.4,25.4,30.21,West,272,0.0,0.0,75,0.00,,,0.00,Wunderground v.1.15,2013-03-30 02:34:00,
2013-03-29 22:39:00,31.9,25.2,30.21,West,272,0.0,0.0,76,0.00,,,0.00,Wunderground v.1.15,2013-03-30 02:39:00,
2013-03-29 22:45:00,31.5,24.5,30.21,West,272,0.0,0.0,75,0.00,,,0.00,Wunderground v.1.15,2013-03-30 02:45:00,
2013-03-29 22:51:00,30.9,24.2,30.21,West,272,0.0,0.0,76,0.00,,,0.00,Wunderground v.1.15,2013-03-30 02:51:00,
2013-03-29 22:57:00,30.4,24.7,30.21,West,272,0.0,0.0,79,0.00,,,0.00,Wunderground v.1.15,2013-03-30 02:57:00,
2013-03-29 23:02:00,30.1,24.7,30.21,West,272,0.0,0.0,80,0.00,,,0.00,Wunderground v.1.15,2013-03-30 03:02:00,
2013-03-29 23:07:00,30.0,24.9,30.21,West,272,0.0,0.0,81,0.00,,,0.00,Wunderground v.1.15,2013-03-30 03:07:00,
2013-03-29 23:13:00,29.7,24.9,30.21,West,272,0.0,0.0,82,0.00,,,0.00,Wunderground v.1.15,2013-03-30 03:13:00,
2013-03-29 23:18:00,29.7,25.2,30.21,West,272,0.0,0.0,83,0.00,,,0.00,Wunderground v.1.15,2013-03-30 03:18:00,
2013-03-29 23:24:00,29.5,25.3,30.21,West,272,0.0,0.0,84,0.00,,,0.00,Wunderground v.1.15,2013-03-30 03:24:00,
2013-03-29 23:29:00,29.4,25.4,30.21,West,272,0.0,0.0,85,0.00,,,0.00,Wunderground v.1.15,2013-03-30 03:29:00,
2013-03-29 23:34:00,29.4,25.7,30.21,West,272,0.0,0.0,86,0.00,,,0.00,Wunderground v.1.15,2013-03-30 03:34:00,
2013-03-29 23:40:00,29.4,27.9,30.21,West,272,0.0,0.0,94,0.00,,,0.00,Wunderground v.1.15,2013-03-30 03:40:00,
2013-03-29 23:45:00,29.4,28.4,30.21,West,272,0.0,0.0,96,0.00,,,0.00,Wunderground v.1.15,2013-03-30 03:45:00,
2013-03-29 23:51:00,29.5,28.8,30.21,West,272,0.0,0.0,97,0.00,,,0.00,Wunderground v.1.15,2013-03-30 03:51:00,
2013-03-29 23:56:00,29.4,29.4,30.21,West,272,0.0,0.0,100,0.00,,,0.00,Wunderground v.1.15,2013-03-30 03:56:00,